EDT,Max TemperatureF,Mean TemperatureF,Min TemperatureF,Max Dew PointF,MeanDew PointF,Min DewpointF,Max Humidity, Mean Humidity, Min Humidity, Max Sea Level PressureIn, Mean Sea Level PressureIn, Min Sea Level PressureIn, Max VisibilityMiles, Mean VisibilityMiles, Min VisibilityMiles, Max Wind SpeedMPH, Mean Wind SpeedMPH, Max Gust SpeedMPH,PrecipitationIn, CloudCover, Events, WindDirDegrees
2013-3-1,46,40,34,30,27,24,82,63,46,29.83,29.75,29.66,10,10,10,17,10,25,0.00,5,,319
2013-3-2,41,36,32,23,21,19,64,56,45,29.83,29.80,29.75,10,10,10,16,12,22,0.00,8,,329
2013-3-3,37,32,27,18,17,15,64,53,44,29.83,29.79,29.75,10,10,10,18,11,26,0.00,5,,318
2013-3-4,41,34,28,20,17,14,61,50,40,29.98,29.89,29.84,10,10,10,21,14,31,0.00,3,,306
2013-3-5,48,39,30,27,23,20,75,55,37,30.06,30.01,29.97,10,10,10,14,6,16,0.00,1,,37
2013-3-6,41,38,35,35,32,28,89,78,65,29.95,29.86,29.77,10,10,6,33,19,46,0.09,7,Rain-Snow,43
2013-3-7,46,40,35,31,27,24,85,63,46,30.12,30.05,29.94,10,10,8,21,16,28,0.00,7,Rain-Snow,358
2013-3-8,43,36,30,32,29,24,93,83,59,30.24,30.09,30.06,10,4,0,21,14,29,0.16,8,Fog-Rain-Snow,331
2013-3-9,59,46,32,23,20,15,64,43,18,30.34,30.28,30.22,10,10,10,14,9,,0.00,0,,353
2013-3-10,55,42,28,34,30,18,89,67,39,30.40,30.34,30.29,10,10,10,12,3,,0.00,1,,108
2013-3-11,61,48,37,47,39,31,100,83,33,30.33,30.21,30.09,10,7,0,14,3,17,0.00,6,Fog,144
2013-3-12,59,51,42,56,50,32,97,88,67,30.03,29.81,29.70,10,7,1,20,9,30,0.94,7,Rain,208
2013-3-13,50,42,35,31,26,20,73,54,37,29.97,29.92,29.86,10,10,10,18,10,32,0.00,1,,286
2013-3-14,42,34,28,21,14,10,72,42,29,30.03,29.98,29.94,10,10,10,25,16,34,0.00,3,,298
2013-3-15,50,38,27,29,18,10,53,42,32,30.05,29.92,29.76,10,10,10,18,9,28,0.00,3,,260
2013-3-16,46,40,33,32,29,21,93,79,49,29.95,29.83,29.77,10,5,0,13,8,,0.12,8,Fog-Rain-Snow-Thunderstorm,47
2013-3-17,39,34,28,31,23,17,93,66,43,30.32,30.13,29.94,10,10,7,14,7,18,0.00,2,,345
2013-3-18,41,34,28,35,26,12,93,74,47,30.39,30.22,29.93,10,6,2,20,11,28,0.50,6,Rain,75
2013-3-19,50,42,35,38,33,17,100,77,33,29.90,29.79,29.73,10,7,2,17,11,30,0.28,6,Rain,351
2013-3-20,48,40,32,20,17,13,52,40,27,29.95,29.89,29.81,10,10,10,20,10,26,0.00,3,,283
2013-3-21,39,34,28,28,18,9,85,56,34,29.83,29.78,29.69,10,10,8,15,11,26,0.00,5,,337
2013-3-22,42,34,28,19,17,11,61,50,40,29.96,29.87,29.81,10,10,10,18,11,31,0.00,3,,289
2013-3-23,48,37,28,20,18,16,61,44,31,29.98,29.94,29.88,10,10,10,18,11,26,0.00,1,,304
2013-3-24,46,38,30,25,19,17,62,47,31,30.00,29.87,29.71,10,10,10,13,6,20,0.00,1,,332
2013-3-25,37,35,33,34,32,25,96,87,62,29.72,29.56,29.49,10,6,0,18,9,28,0.56,8,Fog-Rain-Snow,26
2013-3-26,52,43,35,34,30,24,92,66,38,29.93,29.79,29.66,10,10,9,16,8,23,0.00,7,Rain,304
2013-3-27,52,42,35,32,28,21,79,58,33,30.05,29.97,29.93,10,10,10,18,9,25,0.00,2,,300
2013-3-28,48,41,34,29,27,25,73,54,39,30.16,30.07,30.03,10,10,10,17,9,23,0.00,5,,310
2013-3-29,55,44,36,28,26,24,64,47,35,30.20,30.16,30.11,10,10,10,13,8,21,0.00,4,,311
2013-3-30,57,44,32,29,25,19,79,46,24,30.22,30.17,30.11,10,10,10,14,5,20,0.00,1,,290
2013-3-31,57,46,34,48,39,27,100,80,34,30.16,29.90,29.73,10,6,2,14,5,25,0.18,5,Rain,165